Theta_e
285 285 286 286 286 286 286 285 286 290 286 291 287 285 285 283 283 283 281 280 280 280
282 282 282 283 284 284 284 284 284 283 283 283 283 282 281 280 279 279 278 277 277 277
279 280 280 280 279 280 280 281 281 281 280 280 280 279 279 278 277 276 276 276 275 275
278 277 277 277 278 278 278 279 278 277 277 278 278 277 277 276 276 276 275 275 274 274
277 277 276 275 276 277 276 277 276 276 276 276 276 276 276 275 275 275 274 274 274 273
276 276 275 275 275 276 275 275 275 276 275 275 275 275 275 275 275 275 274 273 272 271
276 276 276 276 276 276 275 274 274 274 273 273 274 274 274 274 273 273 274 274 274 273
276 276 276 276 276 276 276 276 276 275 275 274 273 273 272 272 272 272 272 273 274 275
276 276 276 276 275 275 275 275 275 275 275 275 276 277 276 273 272 272 272 271 272 272
275 274 274 275 275 275 275 275 275 274 274 274 275 277 275 274 271 270 270 270 271 272
274 273 273 273 273 273 274 274 274 274 275 275 276 276 275 272 269 268 268 269 270 270
273 272 272 271 272 272 273 273 273 273 274 274 274 276 275 272 270 268 268 268 269 270
272 272 271 271 271 271 272 272 272 272 272 272 275 277 275 272 270 268 268 268 268 270
270 270 270 270 270 270 270 270 269 269 270 270 271 275 277 275 271 269 268 268 267 267
Wind_Speed
10 7 7 10 7 7 7 7 11 11 11 7 16 15 14 13 11 14 14 16 12 9
10 11 10 11 10 8 9 8 12 14 11 11 18 17 16 13 14 14 13 13 13 11
11 11 12 12 13 12 11 13 15 18 15 13 19 18 16 13 15 16 13 10 14 11
10 13 14 13 13 13 14 15 17 19 18 9 17 19 18 17 16 18 16 14 13 13
12 13 15 16 14 13 17 18 19 17 13 20 15 16 18 18 14 16 16 13 13 13
13 15 15 18 15 14 17 17 19 15 15 15 14 17 16 16 15 16 14 12 14 12
14 14 15 15 16 16 15 17 17 13 15 16 15 14 14 13 14 15 12 12 13 13
12 13 14 15 16 14 15 16 15 13 14 13 13 9 11 12 13 12 12 11 12 12
13 13 14 14 16 15 14 14 10 13 14 14 10 20 19 12 10 11 11 11 10 9
11 13 12 13 12 13 11 11 11 11 12 13 11 20 21 19 11 12 12 10 8 8
10 11 11 11 11 11 9 9 8 10 10 11 11 19 19 18 12 11 11 9 8 8
7 10 10 12 10 7 8 8 8 8 10 11 10 15 15 11 9 9 9 7 7 7
7 9 9 7 6 6 7 9 7 9 8 9 6 13 12 9 5 7 5 5 5 7
7 7 6 6 6 6 7 7 6 7 6 6 7 7 12 11 5 4 2 1 2 2
Wind_Direction
30 44 44 52 50 44 45 47 46 48 45 71 82 75 79 76 72 75 72 66 73 65
42 52 55 55 54 49 48 54 64 60 49 28 87 80 78 80 73 75 73 70 66 68
48 53 57 59 58 55 55 59 61 65 62 40 72 79 79 80 84 80 71 67 73 67
52 59 60 60 59 61 66 64 66 62 60 53 65 72 76 73 78 83 81 71 74 74
61 63 65 63 60 61 69 59 65 66 70 63 54 73 75 76 70 77 79 80 76 67
64 68 71 69 65 62 71 69 65 68 78 83 76 69 70 76 78 73 73 77 76 77
65 70 72 78 77 69 74 78 73 65 67 68 74 72 78 80 81 83 75 70 78 77
67 64 67 69 74 72 68 69 72 76 76 75 67 64 76 83 86 88 87 72 70 69
75 73 68 66 68 69 63 67 76 79 83 85 88 100 101 100 97 92 87 73 68 73
74 75 69 68 73 72 75 85 80 82 84 89 92 83 80 75 69 69 70 69 64 64
75 76 73 75 74 71 64 67 74 73 73 78 74 75 76 75 73 71 69 63 52 43
77 91 83 66 60 68 77 72 66 63 70 77 73 72 72 75 74 73 68 61 42 24
71 78 79 92 86 76 78 80 74 71 52 49 80 86 78 78 83 69 56 40 30 359
64 71 76 80 65 67 76 79 70 69 47 41 27 44 73 75 69 70 47 6 329 324